Flag for U.S.A. Weather past 2 weeks in Aliso Viejo, California, U.S.A.

Now
66 °F

Scattered clouds.


Feels Like: 66 °F
Forecast: 47 / 63 °F
Wind: 12 mph from West

Location: John Wayne Airport-Orange County Airport

Current Time: Mar 3, 2015 at 3:02:57 PM

Latest Report: Mar 3, 2015 at 1:53 PM


Visibility: 10 mi

Pressure: 29.89 "Hg

Humidity: 40%

Dew point: 41 °F

Location of Aliso ViejoLocation

Historic Weather in Aliso Viejo — Graph

°F

Aliso Viejo temperature yesterday

Maximum temperature yesterday: 62 °F (at 1:53 PM)
Minimum temperature yesterday: 51 °F (at 10:53 AM)
Average temperature yesterday: 56 °F

Past Weeks' High & Low Weather Summary

 TemperatureHumidityPressure
High75 °F (Feb 24, 2:53 PM)88% (Feb 26, 6:02 AM)30.23 "Hg (Feb 26, 6:02 AM)
Low50 °F (Mar 3, 4:53 AM)13% (Feb 24, 12:53 PM)29.76 "Hg (Feb 27, 3:53 PM)
Average62 °F62%29.98 "Hg
* Reported Feb 16 12:53 PM — Mar 3 12:53 PM, Aliso Viejo, Weather by CustomWeather, © 2015

Note: Actual official high and low records may vary slightly from our data, if they occured in-between our weather recording intervals... More about our weather records

Advertising

Aliso Viejo weather history for previous 24 hours

 ConditionsComfort  
Time TempWeatherWind HumidityBarometerVisibility
12:53 PM
Tue, Mar 3
69 °FScattered clouds.5 mph32%29.90 "Hg10 mi
11:53 AM68 °FScattered clouds.7 mph35%29.93 "Hg10 mi
10:53 AM65 °FScattered clouds.No wind40%29.95 "Hg10 mi
9:53 AM63 °FScattered clouds.No wind43%29.96 "Hg10 mi
8:53 AM61 °FScattered clouds.No wind48%29.97 "Hg10 mi
7:53 AM57 °FScattered clouds.No wind53%29.96 "Hg10 mi
6:53 AM50 °FScattered clouds.5 mph68%29.94 "Hg10 mi
5:53 AM50 °FPassing clouds.No wind68%29.93 "Hg10 mi
4:53 AM50 °FClear.No wind68%29.92 "Hg10 mi
3:53 AM51 °FClear.3 mph66%29.92 "Hg10 mi
2:53 AM51 °FClear.No wind66%29.94 "Hg10 mi
1:53 AM52 °FClear.No wind61%29.95 "Hg10 mi
12:53 AM53 °FPassing clouds.3 mph61%29.96 "Hg10 mi
11:53 PM
Mon, Mar 2
54 °FPassing clouds.3 mph59%29.97 "Hg10 mi
10:53 PM55 °FPassing clouds.5 mph57%29.98 "Hg10 mi
9:53 PM55 °FClear.5 mph62%29.97 "Hg10 mi
8:53 PM56 °FPassing clouds.6 mph62%29.97 "Hg10 mi
7:53 PM57 °FPassing clouds.7 mph62%29.97 "Hg10 mi
6:53 PM58 °FPassing clouds.6 mph60%29.95 "Hg10 mi
5:53 PM59 °FPassing clouds.7 mph58%29.94 "Hg10 mi
4:53 PM60 °FScattered clouds.12 mph56%29.93 "Hg10 mi
3:53 PM61 °FScattered clouds.10 mph50%29.92 "Hg10 mi
Weather by CustomWeather, © 2015

See weather overviewHow to use our weather pages